This demonstration page uses our WeatherBlox Daily Observations layout. Learn more.

Left ArrowRight Arrow

Hourly Observations for August 11, 2022

Temp ( °F °C ) Dew Point ( °F °C ) Humidity (%) Winds ( mph kmh ) Pressure ( in mb ) Visibility ( mi km ) Precip ( " mm )
12:52 am 00:52 Clear 71 21.7 63 17.2 76 76 E 8 13 30.12 1020 10 16 0.00 0.00
1:52 am 01:52 Clear 69 20.6 62 16.7 78 78 E 5 7 30.11 1020 10 16 0.00 0.00
2:52 am 02:52 Clear 68 20 62 16.7 81 81 E 6 9 30.10 1019 10 16 0.00 0.00
3:52 am 03:52 Clear 66 18.9 62 16.7 87 87 Calm 30.10 1019 10 16 0.00 0.00
4:52 am 04:52 Clear 66 18.9 62 16.7 87 87 ESE 6 9 30.09 1019 10 16 0.00 0.00
5:52 am 05:52 Clear 65 18.3 62 16.7 90 90 ESE 3 6 30.10 1019 10 16 0.00 0.00
6:52 am 06:52 Sunny 66 18.9 63 17.2 90 90 SE 7 11 30.13 1020 10 16 0.00 0.00
7:52 am 07:52 Sunny 70 21.1 64 17.8 81 81 SE 6 9 30.14 1021 10 16 0.00 0.00
8:52 am 08:52 Sunny 73 22.8 64 17.8 73 73 ESE 6 9 30.15 1021 10 16 0.00 0.00
9:52 am 09:52 Sunny 77 25 62 16.7 60 60 SE 6 9 30.15 1021 10 16 0.00 0.00
10:52 am 10:52 Sunny 78 25.6 60 15.6 54 54 E 8 13 30.14 1021 10 16 0.00 0.00
11:52 am 11:52 Sunny 81 27.2 58 14.4 45 45 NE 9 15 30.13 1020 10 16 0.00 0.00
12:52 pm 12:52 Sunny 83 28.3 57 13.9 41 41 ENE 8 13 30.11 1020 10 16 0.00 0.00
1:52 pm 13:52 Sunny 84 28.9 57 13.9 40 40 N 7 11 30.10 1019 10 16 0.00 0.00
2:52 pm 14:52 Sunny 85 29.4 54 12.2 35 35 ENE 9 15 30.09 1019 10 16 0.00 0.00
3:52 pm 15:52 Sunny 86 30 56 13.3 36 36 undefined N/A 30.07 1018 10 16 0.00 0.00
4:52 pm 16:52 Sunny 87 30.6 55 12.8 34 34 NNE 8 13 30.06 1018 10 16 0.00 0.00
5:52 pm 17:52 Sunny 86 30 56 13.3 36 36 NNE 12 19 30.06 1018 10 16 0.00 0.00
6:52 pm 18:52 Sunny 85 29.4 53 11.7 34 34 ENE 9 15 30.06 1018 10 16 0.00 0.00
7:52 pm 19:52 Sunny 81 27.2 54 12.2 39 39 ENE 7 11 30.06 1018 10 16 0.00 0.00
8:52 pm 20:52 Clear 77 25 57 13.9 50 50 NE 6 9 30.07 1018 10 16 0.00 0.00
9:52 pm 21:52 Clear 75 23.9 63 17.2 66 66 ENE 7 11 30.09 1019 10 16 0.00 0.00
10:52 pm 22:52 Clear 72 22.2 63 17.2 73 73 E 5 7 30.09 1019 10 16 0.00 0.00
11:52 pm 23:52 Clear 71 21.7 63 17.2 76 76 E 5 7 30.10 1019 10 16 0.00 0.00

Powered by AerisWeather